Kingman, AZ

2:53 AM MST on October 17, 2017 (GMT -0700)
Kingman

Weather History for KIGM - October, 2013

Change the Weather History Date:

Thursday, October 10, 2013

  Actual Average Record
Temperature  
Mean Temperature 48 °F 65 °F  
Max Temperature 57 °F 80 °F 95 °F (1936)
Min Temperature 39 °F 51 °F 29 °F (1924)
Degree Days  
Heating Degree Days 17 3  
Month to date heating degree days 46 17  
Since 1 July heating degree days 72 23  
Cooling Degree Days 0 3  
Month to date cooling degree days 6 41  
Year to date cooling degree days 2105 2067  
Moisture  
Dew Point 40 °F    
Average Humidity 70    
Maximum Humidity 93    
Minimum Humidity 47    
Precipitation  
Precipitation 0.09 in 0.02 in 0.70 in (1985)
Month to date precipitation 0.12 0.15  
Year to date precipitation 5.96 6.44  
Sea Level Pressure  
Sea Level Pressure 29.81 in    
Wind  
Wind Speed 9 mph (SSW)    
Max Wind Speed 25 mph    
Max Gust Speed 31 mph    
Visibility 10 miles    
Events Rain    
T = Trace of Precipitation, MM = Missing Value Source: NWS Daily Summary

Daily Weather History Graph

Daily Weather History Graph

Search for Another Location

Airport or City:

Trip Planner

Search our weather history database for the weather conditions in past years. The results will help you decide how hot, cold, wet, or windy it might be!

Date:

Astronomy

Oct. 10, 2013 Rise Set
Actual Time 6:38 AM MST 6:06 PM MST
Civil Twilight 6:12 AM MST 6:32 PM MST
Nautical Twilight 5:43 AM MST 7:01 PM MST
Astronomical Twilight 5:13 AM MST 7:30 PM MST
Moon 12:25 PM MST (10/10) 10:56 PM MST (10/10)
Length of Visible Light 12h 19m
Length of Day
11h 28m
Waxing Crescent, 37% of the Moon is Illuminated
Oct 10
Waxing Crescent
Oct 11
First Quarter
Oct 18
Full
Oct 26
Last Quarter
Nov 3
New

Hourly Weather History & Observations

Time (MST) Temp. Windchill Dew Point Humidity Pressure Visibility Wind Dir Wind Speed Gust Speed Precip Events Conditions
12:51 AM 48.0 °F - 42.1 °F 80% 29.61 in 10.0 mi SSW 12.7 mph - 0.00 in   Mostly Cloudy
1:21 AM 48.2 °F - 42.8 °F 82% 29.74 in 10.0 mi SW 11.5 mph - N/A   Overcast
1:51 AM 48.0 °F - 43.0 °F 83% 29.60 in 10.0 mi WSW 5.8 mph - N/A   Overcast
2:51 AM 46.9 °F - 44.1 °F 90% 29.62 in 10.0 mi SSW 3.5 mph - 0.00 in   Overcast
2:54 AM 46.4 °F 43.5 °F 44.6 °F 93% 29.75 in 10.0 mi SSW 5.8 mph - N/A   Overcast
3:51 AM 46.9 °F - 43.0 °F 86% 29.63 in 10.0 mi SSW 4.6 mph - N/A   Overcast
4:03 AM 48.2 °F - 42.8 °F 82% 29.75 in 10.0 mi SSW 9.2 mph - N/A   Overcast
4:51 AM 46.9 °F - 41.0 °F 80% 29.63 in 10.0 mi South 11.5 mph - N/A   Overcast
5:51 AM 43.0 °F 33.3 °F 37.9 °F 82% 29.68 in 9.0 mi SW 25.3 mph 31.1 mph 0.00 in Rain Light Rain
6:02 AM 41.0 °F 31.9 °F 37.4 °F 87% 29.80 in 5.0 mi SSW 19.6 mph 28.8 mph 0.02 in Rain Rain
6:33 AM 42.8 °F 37.5 °F 39.2 °F 87% 29.81 in 10.0 mi SSW 9.2 mph - 0.07 in Rain Light Rain
6:51 AM 43.0 °F 38.2 °F 39.0 °F 86% 29.71 in 10.0 mi SSW 8.1 mph - 0.09 in Rain Light Rain
7:51 AM 45.0 °F 38.9 °F 41.0 °F 86% 29.74 in 10.0 mi SSW 12.7 mph - 0.00 in   Overcast
8:51 AM 48.0 °F - 41.0 °F 77% 29.77 in 10.0 mi SW 11.5 mph - N/A   Overcast
9:51 AM 50.0 °F - 39.9 °F 68% 29.79 in 10.0 mi WSW 11.5 mph - N/A   Overcast
10:31 AM 50.0 °F - 39.2 °F 66% 29.92 in 10.0 mi SW 13.8 mph - N/A   Overcast
10:51 AM 51.1 °F - 39.0 °F 63% 29.81 in 10.0 mi SW 16.1 mph 25.3 mph N/A   Overcast
11:12 AM 51.8 °F - 39.2 °F 62% 29.94 in 10.0 mi SW 15.0 mph - N/A   Overcast
11:15 AM 51.8 °F - 39.2 °F 62% 29.94 in 10.0 mi SW 18.4 mph 24.2 mph N/A   Overcast
11:51 AM 51.1 °F - 39.0 °F 63% 29.83 in 10.0 mi SW 16.1 mph 23.0 mph N/A   Overcast
12:51 PM 55.0 °F - 39.9 °F 57% 29.83 in 10.0 mi SW 16.1 mph 21.9 mph N/A   Overcast
1:51 PM 55.9 °F - 39.0 °F 53% 29.84 in 10.0 mi SW 16.1 mph - N/A   Clear
2:51 PM 55.9 °F - 37.9 °F 51% 29.86 in 10.0 mi SW 10.4 mph - N/A   Overcast
3:51 PM 57.0 °F - 37.9 °F 49% 29.86 in 10.0 mi South 9.2 mph - N/A   Mostly Cloudy
4:51 PM 55.9 °F - 37.9 °F 51% 29.87 in 10.0 mi SSW 6.9 mph - N/A   Mostly Cloudy
5:51 PM 55.0 °F - 37.9 °F 53% 29.88 in 10.0 mi SW 3.5 mph - N/A   Scattered Clouds
6:51 PM 50.0 °F - 39.0 °F 66% 29.89 in 10.0 mi Calm Calm - N/A   Clear
7:51 PM 46.9 °F - 41.0 °F 80% 29.91 in 10.0 mi SE 9.2 mph - N/A   Clear
8:51 PM 45.0 °F - 41.0 °F 86% 29.91 in 10.0 mi Calm Calm - N/A   Clear
9:51 PM 41.0 °F - 37.9 °F 89% 29.94 in 10.0 mi Calm Calm - N/A   Clear
10:51 PM 39.9 °F - 37.9 °F 93% 29.95 in 10.0 mi Calm Calm - N/A   Clear
11:51 PM 39.9 °F 35.8 °F 37.0 °F 89% 29.95 in 10.0 mi ESE 5.8 mph - N/A   Clear